Overview Statistics Trail Chart Weather Telemetry Raw packets
 

This is the latest recevied weather packets stored in our database for station/object K5OLV. If no packets are shown the sender has not sent any weather packets the latest 10 day(s).

<< 1 2 3 4 5 >>
Time Temp. Humidity Pressure Rain* Wind** Luminosity Snow
1788618749 28.89° C 77% 1014.3 hPa 0 mm - 512 W/m² -
1788618447 28.89° C 78% 1014.1 hPa 0 mm - 474 W/m² -
1788618142 28.89° C 75% 1014.3 hPa 0 mm - 455 W/m² -
1788617838 28.89° C 73% 1014.3 hPa 0 mm - 440 W/m² -
1788617534 28.33° C 73% 1014.3 hPa 0 mm - 420 W/m² -
1788617229 28.33° C 76% 1014.2 hPa 0 mm - 397 W/m² -
1788616929 28.89° C 73% 1014 hPa 0 mm - 376 W/m² -
1788616618 28.89° C 71% 1014.3 hPa 0 mm - 348 W/m² -
1788616314 28.89° C 74% 1014.2 hPa 0 mm - 311 W/m² -
1788616013 30° C 69% 1014.3 hPa 0 mm - 301 W/m² -
1788615713 29.44° C 74% 1014.3 hPa 0 mm - 281 W/m² -
1788615408 28.33° C 76% 1014.3 hPa 0 mm - 270 W/m² -
1788615108 28.89° C 81% 1014.5 hPa 0 mm - 255 W/m² -
1788614807 27.78° C 81% 1014.5 hPa 0 mm - 234 W/m² -
1788614502 27.78° C 84% 1014.4 hPa 0 mm - 210 W/m² -
1788614198 26.11° C 86% 1014.4 hPa 0 mm - 212 W/m² -
1788613892 25.56° C 90% 1014.3 hPa 0 mm - 192 W/m² -
1788613587 25° C 92% 1014.7 hPa 0 mm - 141 W/m² -
1788613281 25° C 92% 1014.7 hPa 0 mm - 92 W/m² -
1788612975 24.44° C 93% 1014.4 hPa 0 mm - 78 W/m² -
1788612671 24.44° C 93% 1014.5 hPa 0 mm - 76 W/m² -
1788612368 23.89° C 94% 1014.5 hPa 0 mm - 75 W/m² -
1788612063 23.89° C 93% 1014.4 hPa 0 mm - 71 W/m² -
1788611758 23.89° C 94% 1014.6 hPa 0 mm - 67 W/m² -
1788611455 23.33° C 94% 1014.4 hPa 0 mm - 61 W/m² -

* Rain latest hour (hover to see other rain measurements)
** Current wind speed in m/s (hover to see current wind gust speed)